Flag for Brazil Weather past 2 weeks in Campinas, São Paulo, Brazil

Now
52 °F

Sunny.


Feels Like: 49 °F
Forecast: 52 / 78 °F
Wind: 7 mph from East

Location: Campinas Aeroporto

Current Time: Jul 29, 2015 at 7:34:01 AM

Latest Report: Jul 29, 2015 at 7:00 AM


Visibility: 10 mi

Pressure: 30.24 "Hg (27.85 "Hg at 686m altitude)

Humidity: 88%

Dew point: 48 °F

Location of CampinasLocation

Historic Weather in Campinas — Graph

°F

Campinas temperature yesterday

Maximum temperature yesterday: 77 °F (at 3:00 PM)
Minimum temperature yesterday: 52 °F (at 5:00 AM)
Average temperature yesterday: 64 °F

Past Weeks' High & Low Weather Summary

 TemperatureHumidityPressure
High86 °F (Jul 14, 3:00 PM)100% (Jul 17, 3:00 AM)30.30 "Hg (Jul 17, 3:00 AM)
Low48 °F (Jul 25, 6:00 PM)27% (Jul 28, 5:00 PM)30.04 "Hg (Jul 21, 3:00 AM)
Average66 °F70%30.17 "Hg
* Reported Jul 14 6:00 AM — Jul 29 6:00 AM, Campinas, Weather by CustomWeather, © 2015

Note: Actual official high and low records may vary slightly from our data, if they occured in-between our weather recording intervals... More about our weather records

Advertising

Campinas weather history for previous 24 hours

 ConditionsComfort  
Time TempWeatherWind HumidityBarometerVisibility
6:00 AM
Wed, Jul 29
54 °FSunny.7 mph82%30.21 "Hg10 mi
5:00 AM55 °FClear.9 mph77%30.18 "Hg10 mi
4:00 AM55 °FClear.10 mph82%30.15 "Hg10 mi
3:00 AM55 °FClear.9 mph82%30.15 "Hg10 mi
2:00 AM55 °FClear.7 mph88%30.18 "Hg10 mi
1:00 AM57 °FClear.8 mph82%30.18 "Hg10 mi
12:00 AM57 °FClear.8 mph82%30.18 "Hg10 mi
11:00 PM
Tue, Jul 28
59 °FClear.9 mph63%30.21 "Hg10 mi
10:00 PM59 °FClear.7 mph68%30.18 "Hg10 mi
9:00 PM68 °FClear.5 mph43%30.18 "Hg10 mi
8:00 PM68 °FClear.6 mph40%30.18 "Hg10 mi
7:00 PM72 °FClear.5 mph33%30.15 "Hg10 mi
6:00 PM72 °FClear.5 mph33%30.15 "Hg10 mi
5:00 PM75 °FClear.7 mph27%30.15 "Hg10 mi
4:00 PM77 °FSunny.6 mph28%30.15 "Hg10 mi
3:00 PM77 °FSunny.6 mph32%30.12 "Hg10 mi
2:00 PM75 °FSunny.5 mph31%30.15 "Hg10 mi
1:00 PM73 °FSunny.2 mph31%30.15 "Hg10 mi
12:00 PM72 °FSunny.6 mph38%30.18 "Hg10 mi
11:00 AM70 °FSunny.2 mph40%30.18 "Hg10 mi
10:00 AM64 °FSunny.5 mph60%30.21 "Hg10 mi
9:00 AM59 °FClear.5 mph68%30.21 "Hg6 mi
8:00 AM54 °FClear.6 mph77%30.18 "Hg4 mi
7:00 AM52 °FClear.13 mph82%30.15 "Hg4 mi
Weather by CustomWeather, © 2015

See weather overviewHow to use our weather pages